Regional Weather Roundup
Issued by NWS Newport/Morehead, NC

Current Version | Previous Version | Text Only | Print | Product List | Glossary Off
Versions: 1 2 3 4 5 6 7 8 9 10 11 12 13 14 15 16 17 18 19 20 21 22 23 24 25 26 27 28 29 30 31 32 33 34 35 36 37 38 39 40 41 42 43 44 45 46 47 48 49 50
000 ASUS42 KMHX 021024 RWRMHX WEATHER ROUNDUP FOR EASTERN NORTH CAROLINA NATIONAL WEATHER SERVICE NEWPORT/MOREHEAD CITY NC 500 AM EST MON MAR 02 2015 NOTE: "FAIR" INDICATES FEW OR NO CLOUDS BELOW 12,000 FEET WITH NO SIGNIFICANT WEATHER AND/OR OBSTRUCTIONS TO VISIBILITY NCZ015>017-031-032-045>047-102-103-021100- NORTH COAST CITY SKY/WX TMP DP RH WIND PRES REMARKS EDENTON FOG 37 37 99 SW9 30.17S VSB 3/4 ELIZABETH CITY FOG 37 37 100 SW10 30.14F VSB 1/2 KITTY HAWK FOG 40 40 100 SW3 30.14F VSB 1/4 MANTEO CLOUDY 39 39 100 SW6 30.16F FOG $$ NCZ045>047-081-094-103-104-021100- CENTRAL COAST CITY SKY/WX TMP DP RH WIND PRES REMARKS FRISCO FOG 42 42 100 W7 30.19S VSB 1/2 SWANQUARTER N/A 41 N/A N/A W6 30.15S $$ NCZ095-097-098-100-101-021100- SOUTHERN COAST CITY SKY/WX TMP DP RH WIND PRES REMARKS BEAUFORT FOG 44 44 100 SW7 30.21F VSB 1 CEDAR ISLAND N/A 45 N/A N/A SW3G14 30.21F JACKSONVILLE CLOUDY 43 42 97 W7 30.22F PINEY ISLAND N/A N/A N/A N/A MISG 30.20F WILMINGTON CLOUDY 44 44 100 W8 30.23F FOG $$ NCZ011>013-027>030-043-044-078>080-089-090>093-098-021100- COASTAL PLAIN CITY SKY/WX TMP DP RH WIND PRES REMARKS AHOSKIE FOG 34 34 99 CALM 30.18R VSB 3/4 CLINTON FOG 40 40 100 SW5 30.22S VSB 1 ELIZABETHTOWN FOG 40 40 100 S5 30.22S VSB 1/2 GOLDSBORO FOG 39 39 100 SW8 30.18S VSB 1 GREENVILLE FOG 39 39 100 SW3 30.20R VSB 1 HAVELOCK CLOUDY 45 44 97 W9 30.22S FOG KENANSVILLE CLOUDY 40 40 100 CALM 30.22S FOG KINSTON CLOUDY 40 40 100 SW7 30.20S FOG NEW BERN CLOUDY 43 42 97 SW8 30.21S FOG RICHLANDS CLOUDY 43 39 87 SW6 30.22F ROCKY MOUNT FOG 39 38 96 SW6 30.19R VSB 1 WASHINGTON FOG 39 39 98 SW7 30.19S VSB 3/4 WHITEVILLE FOG 42 41 97 S3 30.23F VSB 1/2 $$ AMZ130-135-150-152-154-156-158-170-250-252-270-ANZ085-086-088-633-658-670-021100- MARINE OBSERVATIONS STATION/POSITION TIME TEMP WIND PRES WAVE SWELL AIR SEA DIR/SP/G HT/PER HT/PER (UTC) (F) (DEG/KT/KT) (MB) (FT/S) (FT/S) CHESAPEAKE LIGHT 1000 35 240/ 8/ 8 1020.6 64 E VA BEACH 0950 44 52 250/ 16/ 19 1019.9 4/ 6 2/ 9 DUCK 1000 37 34 240/ 10/ 14 1019.8 2 E DUCK 0911 N/A 3/ 7 10 NE DUCK 0922 37 N/A 3/ 7 OREGON INLET 1000 40 42 220/ 5/ 6 1021.6 HATTERAS CG 1000 42 42 260/ 9/ 12 1022.4 CAPE LOOKOUT 1000 45 260/ 11/ 13 1023.0 BEAUFORT LAB 1000 44 43 250/ 5/ 7 1022.1 27 SE WRIGHTSVLE NOT AVBL 5 SE WRIGHTSVLE NOT AVBL 225 S CAPE HAT 0950 71 72 220/ 14/ 17 1025.0 6/ 9 5/ 9 41 SE CHARLESTON 0950 57 69 270/ 4/ 6 1024.7 4/ 8 5/ 8 $$

USA.gov is the U.S. government's official web portal to all federal, state and local government web resources and services.